New Philadelphia, OH

4:58 PM EST on December 14, 2019 (GMT -0500)
Clever

Weather History for KPHD - November, 2019

Change the Weather History Date:

Wednesday, November 13, 2019

  Actual Average Record
Temperature  
Mean Temperature 20 °F 44 °F  
Max Temperature 28 °F 54 °F 70 °F (1964)
Min Temperature 12 °F 34 °F 18 °F (1986)
Degree Days  
Heating Degree Days 45 21  
Month to date heating degree days 368 248  
Since 1 July heating degree days 653 747  
Cooling Degree Days 0 0  
Month to date cooling degree days 0 0  
Year to date cooling degree days 962 697  
Moisture  
Dew Point 12 °F    
Average Humidity 68    
Maximum Humidity 88    
Minimum Humidity 48    
Precipitation  
Precipitation 0.00 in 0.10 in 0.76 in (1992)
Month to date precipitation 0.87 1.29  
Year to date precipitation 39.49 34.25  
Sea Level Pressure  
Sea Level Pressure 30.38 in    
Wind  
Wind Speed 2 mph ()    
Max Wind Speed 10 mph    
Max Gust Speed 14 mph    
Visibility 10.0 miles    
Events      
T = Trace of Precipitation, MM = Missing Value Source: Averaged Metar Reports

Daily Weather History Graph

Daily Weather History Graph

Search for Another Location

Airport or City:

Astronomy

Nov. 13, 2019 Rise Set
Actual Time 7:09 AM EST 5:10 PM EST
Civil Twilight 6:40 AM EST 5:39 PM EST
Nautical Twilight 6:07 AM EST 6:12 PM EST
Astronomical Twilight 5:35 AM EST 6:44 PM EST
Moon 6:12 PM EST (11/13) 8:01 AM EST (11/13)
Length of Visible Light 10h 58m
Length of Day
10h 00m
Full, 99% of the Moon is Illuminated
Nov 13
Full
Nov 19
Last Quarter
Nov 26
New
Dec 4
First Quarter
Dec 12
Full

Hourly Weather History & Observations

Time (EST) Temp. Windchill Dew Point Humidity Pressure Visibility Wind Dir Wind Speed Gust Speed Precip Events Conditions
12:53 AM 16.0 °F 10.4 °F 10.0 °F 77% 30.40 in 10.0 mi WSW 3.5 mph - N/A   Clear
1:53 AM 15.1 °F - 10.0 °F 80% 30.41 in 10.0 mi Calm Calm - N/A   Clear
2:53 AM 14.0 °F - 10.0 °F 84% 30.42 in 10.0 mi Calm Calm - N/A   Clear
3:53 AM 14.0 °F - 9.0 °F 80% 30.43 in 10.0 mi Calm Calm - N/A   Clear
4:53 AM 12.9 °F - 9.0 °F 84% 30.45 in 10.0 mi Calm Calm - N/A   Clear
5:53 AM 12.9 °F - 8.1 °F 81% 30.45 in 10.0 mi Calm Calm - N/A   Clear
6:53 AM 12.9 °F - 8.1 °F 81% 30.46 in 10.0 mi Calm Calm - N/A   Clear
7:53 AM 14.0 °F - 10.9 °F 88% 30.46 in 10.0 mi Calm Calm - N/A   Clear
8:53 AM 17.1 °F - 12.9 °F 84% 30.46 in 10.0 mi Calm Calm - N/A   Clear
9:53 AM 19.9 °F - 14.0 °F 78% 30.48 in 10.0 mi Calm Calm - N/A   Clear
10:53 AM 24.1 °F 18.2 °F 15.1 °F 69% 30.47 in 10.0 mi Variable 4.6 mph - N/A   Clear
11:53 AM 25.0 °F 19.3 °F 10.0 °F 53% 30.44 in 10.0 mi South 4.6 mph - N/A   Clear
12:53 PM 26.1 °F 16.8 °F 10.0 °F 51% 30.41 in 10.0 mi SE 9.2 mph - N/A   Scattered Clouds
1:53 PM 27.0 °F 18.7 °F 10.0 °F 49% 30.38 in 10.0 mi SE 8.1 mph - N/A   Mostly Cloudy
2:53 PM 27.0 °F - 10.9 °F 51% 30.38 in 10.0 mi Calm Calm - N/A   Clear
3:53 PM 27.0 °F 23.0 °F 10.0 °F 49% 30.36 in 10.0 mi SSE 3.5 mph - N/A   Clear
4:53 PM 27.0 °F 19.5 °F 12.0 °F 53% 30.35 in 10.0 mi South 6.9 mph - N/A   Clear
5:53 PM 27.0 °F 19.5 °F 14.0 °F 58% 30.31 in 10.0 mi SE 6.9 mph - N/A   Clear
6:53 PM 26.1 °F 20.5 °F 14.0 °F 60% 30.31 in 10.0 mi SSE 4.6 mph - N/A   Clear
7:53 PM 26.1 °F 21.9 °F 15.1 °F 63% 30.30 in 10.0 mi Variable 3.5 mph - N/A   Clear
8:53 PM 26.1 °F 20.5 °F 16.0 °F 66% 30.29 in 10.0 mi SSE 4.6 mph - N/A   Clear
9:53 PM 26.1 °F 19.4 °F 15.1 °F 63% 30.27 in 10.0 mi SSE 5.8 mph - N/A   Clear
10:53 PM 26.1 °F 18.4 °F 16.0 °F 66% 30.25 in 10.0 mi SSE 6.9 mph - N/A   Clear
11:53 PM 27.0 °F 20.5 °F 16.0 °F 63% 30.24 in 10.0 mi Variable 5.8 mph - N/A   Partly Cloudy